This is the latest recevied weather packets stored in our database for station/object DK8RG-15. If no packets are shown the sender has not sent any weather packets the latest 10 day(s).
| Time | Temp. | Humidity | Pressure | Rain* | Wind** | Luminosity | Snow |
|---|---|---|---|---|---|---|---|
| 1778083217 | 19.44° C | 51% | 1001.7 hPa | 0 mm | - | - | - |
| 1778082616 | 19.44° C | 52% | 1001.7 hPa | 0 mm | - | - | - |
| 1778082018 | 18.89° C | 51% | 1001.7 hPa | 0 mm | - | - | - |
| 1778081418 | 19.44° C | 49% | 1001.7 hPa | 0 mm | - | - | - |
| 1778080817 | 20° C | 50% | 1001.8 hPa | 0 mm | - | - | - |
| 1778080217 | 19.44° C | 52% | 1001.7 hPa | 0 mm | - | - | - |
| 1778079619 | 19.44° C | 52% | 1002.8 hPa | 0 mm | - | - | - |
| 1778079017 | 19.44° C | 52% | 1001.8 hPa | 0 mm | - | - | - |
| 1778078417 | 18.89° C | 54% | 1002.8 hPa | 0 mm | - | - | - |
| 1778077818 | 18.33° C | 55% | 1002.7 hPa | 0 mm | - | - | - |
| 1778077217 | 17.78° C | 55% | 1002.7 hPa | 0 mm | - | - | - |
| 1778076617 | 17.78° C | 56% | 1002.7 hPa | 0 mm | - | - | - |
| 1778076018 | 17.78° C | 57% | 1002.7 hPa | 0 mm | - | - | - |
| 1778075417 | 17.78° C | 57% | 1002.7 hPa | 0 mm | - | - | - |
| 1778074818 | 17.78° C | 56% | 1002.7 hPa | 0 mm | - | - | - |
| 1778074218 | 18.33° C | 56% | 1002.7 hPa | 0 mm | - | - | - |
| 1778073617 | 18.89° C | 56% | 1002.7 hPa | 0 mm | - | - | - |
| 1778073018 | 17.78° C | 56% | 1002.7 hPa | 0 mm | - | - | - |
| 1778072418 | 18.33° C | 56% | 1002.7 hPa | 0 mm | - | - | - |
| 1778071818 | 17.78° C | 57% | 1002.7 hPa | 0 mm | - | - | - |
| 1778071217 | 17.78° C | 57% | 1002.7 hPa | 0 mm | - | - | - |
| 1778070618 | 17.78° C | 58% | 1002.6 hPa | 0 mm | - | - | - |
| 1778070017 | 17.78° C | 58% | 1002.6 hPa | 0 mm | - | - | - |
| 1778069418 | 17.78° C | 58% | 1002.6 hPa | 0 mm | - | - | - |
| 1778068817 | 17.22° C | 59% | 1002.5 hPa | 0 mm | - | - | - |
* Rain latest hour (hover to see other rain measurements)
** Current wind speed in m/s (hover to see current wind gust speed)